EW2804 Weather Reports


time (UTC)temp
F
wind
direction
speed
knots
gust
knots
rain 1hr
in
rain 24hr
in
rain mn
in
humidity
%
barometer
mb
20260904061042 81 118 0.0 0.0 0.00 0.00 0.00 69 1011.2
20260904053708 81 146 0.9 3.5 0.00 0.00 0.00 66 1011.1
20260904052713 81 195 0.0 2.6 0.00 0.00 0.00 65 1011.1
20260904050514 82 108 0.9 4.3 0.00 0.00 0.00 64 1011.0
20260904045452 82 148 0.9 4.3 0.00 0.00 0.00 63 1010.8
20260904044435 82 133 0.9 5.2 0.00 0.00 0.00 63 1010.9
20260904043434 83 167 0.9 5.2 0.00 0.00 0.00 63 1010.9
20260904042401 83 184 0.9 4.3 0.00 0.00 0.00 64 1010.9
20260904041353 83 162 0.0 3.5 0.00 0.00 0.00 64 1010.8
20260904040320 83 167 0.9 5.2 0.00 0.00 0.00 64 1010.9
20260904034148 83 153 0.9 5.2 0.00 0.00 0.00 63 1010.9
20260904033159 84 155 0.9 6.1 0.00 0.00 0.00 63 1010.9
20260904032155 84 113 1.7 7.0 0.00 0.00 0.00 62 1011.0
20260904031154 84 121 1.7 7.8 0.00 0.00 0.00 62 1010.9
20260904030152 84 90 1.7 7.8 0.00 0.00 0.00 63 1010.8
20260904025129 84 101 0.9 5.2 0.00 0.00 0.00 64 1010.7
20260904024126 85 165 0.9 7.8 0.00 0.00 0.00 64 1010.5
20260904023143 85 225 1.7 7.8 0.00 0.00 0.00 64 1010.4
20260904022117 85 136 1.7 6.1 0.00 0.00 0.00 64 1010.2
20260904021121 86 187 1.7 6.1 0.00 0.00 0.00 62 1010.0
20260904020127 86 109 1.7 6.1 0.00 0.00 0.00 61 1009.8
20260904015109 87 219 1.7 6.1 0.00 0.00 0.00 59 1009.5
20260904014042 87 113 1.7 6.1 0.00 0.00 0.00 58 1009.4
20260904013017 87 144 1.7 6.1 0.00 0.00 0.00 58 1009.3
20260904011944 88 161 1.7 10.4 0.00 0.00 0.00 58 1009.2
20260904010925 88 141 1.7 10.4 0.00 0.00 0.00 58 1009.0
20260904005939 88 143 0.9 6.1 0.00 0.00 0.00 58 1009.0
20260904004925 89 88 1.7 6.1 0.00 0.00 0.00 58 1008.8
20260904003848 89 257 1.7 7.0 0.00 0.00 0.00 57 1008.8
20260904002847 89 183 0.9 7.0 0.00 0.00 0.00 57 1008.8
20260904001826 90 187 1.7 6.1 0.00 0.00 0.00 57 1008.8
20260904000805 90 122 1.7 7.8 0.00 0.00 0.00 56 1008.6
20260903233432 92 147 1.7 7.0 0.00 0.00 0.00 55 1008.4
20260903232403 92 164 1.7 7.0 0.00 0.00 0.00 56 1008.4
20260903231354 92 164 1.7 7.0 0.00 0.00 0.00 56 1008.2
20260903230319 92 153 2.6 7.0 0.00 0.00 0.00 55 1008.1
20260903224154 93 109 1.7 7.8 0.00 0.00 0.00 53 1008.2
20260903223153 93 104 1.7 5.2 0.00 0.00 0.00 55 1008.2
20260903222118 92 153 1.7 9.6 0.00 0.00 0.00 55 1008.2
20260903221048 92 136 2.6 9.6 0.00 0.00 0.00 54 1008.3
20260903220050 94 131 1.7 9.6 0.00 0.00 0.00 53 1008.2
20260903215025 94 127 1.7 7.8 0.00 0.00 0.00 54 1008.3
20260903212910 93 125 3.5 9.6 0.00 0.00 0.00 55 1008.3
20260903211858 94 132 3.5 7.8 0.00 0.00 0.00 54 1008.4
20260903204552 93 116 1.7 8.7 0.00 0.00 0.00 56 1008.9
20260903203554 93 193 2.6 8.7 0.00 0.00 0.00 57 1009.0
20260903202536 92 149 1.7 7.0 0.00 0.00 0.00 56 1009.2
20260903201536 93 194 1.7 10.4 0.00 0.00 0.00 55 1009.3
20260903200513 93 5 2.6 10.4 0.00 0.00 0.00 58 1009.3
20260903195529 93 96 3.5 8.7 0.00 0.00 0.00 56 1009.3
20260903194531 92 180 2.6 11.3 0.00 0.00 0.00 58 1009.4
20260903193455 92 123 2.6 11.3 0.00 0.00 0.00 59 1009.5
20260903191328 91 190 1.7 9.6 0.00 0.00 0.00 61 1009.8
20260903190335 90 135 3.5 8.7 0.00 0.00 0.00 62 1010.1
20260903185336 91 107 1.7 7.0 0.00 0.00 0.00 60 1010.1
20260903184352 93 108 0.9 7.0 0.00 0.00 0.00 59 1010.2
20260903183338 92 208 2.6 7.8 0.00 0.00 0.00 59 1010.2
20260903182346 90 209 1.7 7.8 0.00 0.00 0.00 61 1010.4
20260903181405 90 155 2.6 7.8 0.00 0.00 0.00 61 1010.4
20260903180425 90 150 2.6 7.8 0.00 0.00 0.00 61 1010.6
20260903175406 90 94 2.6 7.8 0.00 0.00 0.00 61 1010.8
20260903174354 89 122 1.7 7.0 0.00 0.00 0.00 62 1010.9
20260903172238 89 110 1.7 6.1 0.00 0.00 0.00 63 1011.2
20260903171239 88 236 1.7 6.1 0.00 0.00 0.00 64 1011.3
20260903170204 88 140 1.7 7.0 0.00 0.00 0.00 65 1011.3
20260903165206 88 250 1.7 7.0 0.00 0.00 0.00 66 1011.3
20260903164225 87 142 1.7 5.2 0.00 0.00 0.00 67 1011.3
20260903163216 86 184 1.7 7.0 0.00 0.00 0.00 68 1011.4
20260903162143 85 153 1.7 7.0 0.00 0.00 0.00 69 1011.4
20260903161158 85 188 1.7 5.2 0.00 0.00 0.00 70 1011.4
20260903160202 85 127 1.7 5.2 0.00 0.00 0.00 70 1011.4
20260903153938 85 273 1.7 5.2 0.00 0.00 0.00 70 1011.3
20260903152928 83 167 0.9 7.0 0.00 0.00 0.00 73 1011.3
20260903151945 83 133 1.7 7.0 0.00 0.00 0.00 71 1011.3
20260903150933 83 133 0.9 5.2 0.00 0.00 0.00 72 1011.4
20260903145929 82 193 0.9 4.3 0.00 0.00 0.00 73 1011.3
20260903143750 83 127 0.9 7.0 0.00 0.00 0.00 73 1011.5
20260903142730 82 136 1.7 6.1 0.00 0.00 0.00 73 1011.5
20260903141714 82 122 1.7 6.1 0.00 0.00 0.00 73 1011.5
20260903140715 82 107 0.9 6.1 0.00 0.00 0.00 73 1011.5
20260903135658 81 147 0.9 5.2 0.00 0.00 0.00 73 1011.4
20260903134650 81 170 0.9 3.5 0.00 0.00 0.00 73 1011.4
20260903133708 81 130 0.0 1.7 0.00 0.00 0.00 73 1011.3
20260903132702 80 130 0.0 2.6 0.00 0.00 0.00 74 1011.3
20260903131638 80 119 0.0 0.0 0.00 0.00 0.00 76 1011.3
20260903130630 78 101 0.0 2.6 0.00 0.00 0.00 78 1011.4
20260903125644 77 140 0.0 1.7 0.00 0.00 0.00 81 1011.3
20260903124622 76 141 0.0 0.0 0.00 0.00 0.00 81 1011.2
20260903123621 76 141 0.0 0.0 0.00 0.00 0.00 80 1011.3
20260903122604 76 142 0.0 0.0 0.00 0.00 0.00 80 1011.0
20260903121534 76 142 0.0 0.0 0.00 0.00 0.00 80 1010.9
20260903120538 77 144 0.0 0.0 0.00 0.00 0.00 80 1010.7
20260903115532 77 146 0.0 0.0 0.00 0.00 0.00 79 1010.7
20260903114500 77 146 0.0 0.0 0.00 0.00 0.00 79 1010.7
20260903113502 77 146 0.0 0.0 0.00 0.00 0.00 78 1010.8
20260903112458 78 146 0.0 0.0 0.00 0.00 0.00 78 1010.8
20260903111505 78 146 0.0 0.0 0.00 0.00 0.00 77 1010.5
20260903110453 78 146 0.0 0.0 0.00 0.00 0.00 76 1010.4
20260903105437 79 146 0.0 0.9 0.00 0.00 0.00 76 1010.3
20260903104443 79 146 0.0 0.0 0.00 0.00 0.00 76 1010.5
20260903103444 79 146 0.0 0.0 0.00 0.00 0.00 77 1010.6
20260903095045 78 146 0.0 0.0 0.00 0.00 0.00 78 1010.5
20260903094019 78 146 0.0 0.0 0.00 0.00 0.00 78 1010.6
20260903093035 78 146 0.0 0.0 0.00 0.00 0.00 76 1010.5
20260903092010 78 146 0.0 0.0 0.00 0.00 0.00 75 1010.4
20260903084703 80 146 0.0 0.0 0.00 0.00 0.00 74 1010.5
20260903082503 80 148 0.0 2.6 0.00 0.00 0.00 74 1010.4
20260903081439 80 98 0.0 0.9 0.00 0.00 0.00 74 1010.5
20260903075302 80 121 0.0 1.7 0.00 0.00 0.00 74 1010.6
20260903074236 80 121 0.0 0.0 0.00 0.00 0.00 73 1010.6
20260903073245 80 123 0.0 1.7 0.00 0.00 0.00 72 1010.5
20260903072254 80 177 0.9 2.6 0.00 0.00 0.00 72 1010.5
20260903071246 81 141 0.0 1.7 0.00 0.00 0.00 71 1010.5
20260903070251 81 127 0.0 0.0 0.00 0.00 0.00 70 1010.6
20260903065310 81 125 0.0 1.7 0.00 0.00 0.00 70 1010.6
20260903064301 81 117 0.0 5.2 0.00 0.00 0.00 69 1010.7
20260903063252 81 126 0.0 5.2 0.00 0.00 0.00 69 1010.8
20260903062233 82 193 0.0 0.0 0.00 0.00 0.00 68 1010.9
20260903061223 82 188 0.0 5.2 0.00 0.00 0.00 67 1011.0